[[{"header":{"parameterUnit":"m.s-1","parameterCategory":1,"la1":30.2991,"la2":30.254,"lo1":-89.0895,"lo2":-89.0444,"dy":0.0017,"dx":0.0017,"nx":28,"ny":28,"refTime":"2023-08-16T03:00:00:Z","depth":0,"parameterNumber":2,"parameterNumberName":"U-component_of_WINDS"},"data":[0,0,0,0,0,0,0,0,0,0,0,0,0,0,0,0,0,0,0,0,0,0,0,0,0,0,0,0,0,0,0,0,0,0,0,0,0,0,0,0,0,0,0,0,0,0,0,0,0,0,0,0,0,0,0,0,0,0,0.2281,0.2283,0,0.2402,0.2403,0.2404,0.2497,0.2497,0.2498,0.2499,0.2624,0.2627,0.2629,0,0,0,0,0,0,0,0,0,0,0,0,0,0.2132,0.2134,0.2281,0.2283,0.2284,0.2401,0.2403,0.2405,0.2496,0.2497,0.2499,0.2499,0.2623,0.2626,0.2629,0,0,0,0,0,0,0,0,0,0,0,0,0,0.2219,0.2135,0.2281,0.2344,0.2351,0.2401,0.2403,0.2405,0.2496,0.2498,0.2499,0.25,0.2622,0.2626,0.263,0.2627,0,0,0.2641,0.2643,0,0,0,0,0,0,0,0,0.2214,0.2225,0.2333,0.234,0.2348,0.2435,0.2397,0.248,0.2496,0.2441,0.2499,0.2501,0.256,0.2569,0.2589,0.2633,0.2639,0.2642,0.2644,0.2646,0.2647,0,0,0,0,0,0,0,0.2208,0.222,0.2329,0.2335,0.2344,0.2367,0.2381,0.2413,0.2492,0.2446,0.2453,0.2466,0.2565,0.2585,0.2593,0.2641,0.2642,0.2645,0.2647,0.2649,0.2689,0.2687,0,0,0,0,0,0,0.2192,0.2214,0.2325,0.2333,0.2283,0.2368,0.2384,0.2406,0.2492,0.2506,0.2465,0.247,0.2578,0.2588,0.2598,0.26,0.2646,0.2649,0.2651,0.269,0.2688,0.2687,0,0,0,0,0,0,0.2188,0.2201,0.232,0.2275,0.2292,0.237,0.2394,0.2408,0.2429,0.2506,0.2521,0.2471,0.258,0.2592,0.2619,0.2606,0.2651,0.2654,0.2691,0.2689,0.2688,0.2606,0,0,0,0,0,0,0.2184,0.2199,0.2199,0.2275,0.2294,0.2339,0.2393,0.2409,0.2435,0.2442,0.2516,0.253,0.2582,0.2613,0.2623,0.2612,0.2657,0.2693,0.269,0.2688,0.261,0.2601,0.2594,0,0,0,0,0,0.2178,0.2171,0.2198,0.2211,0.2295,0.2338,0.235,0.2409,0.2433,0.2434,0.2483,0.2527,0.2606,0.2615,0.2627,0.2617,0.2694,0.2691,0.2688,0.2614,0.2603,0.2594,0,0,0,0,0,0,0.2092,0.2182,0.2213,0.2231,0.2276,0.2354,0.2356,0.2396,0.2436,0.2442,0.2514,0.253,0.2549,0.2586,0.2595,0.2619,0.2655,0.2655,0.2594,0.2585,0.2577,0.2568,0.266,0,0,0,0,0,0.2075,0.2102,0.218,0.2188,0.2209,0.2278,0.2299,0.2341,0.2391,0.2411,0.2463,0.251,0.2546,0.2567,0.2604,0.2616,0.2633,0.2615,0.2607,0.26,0.2598,0.2607,0.2599,0.2678,0.2678,0.2678,0,0,0.2041,0.2093,0.2106,0.2172,0.2212,0.2238,0.2294,0.232,0.234,0.2415,0.2443,0.2483,0.2541,0.2559,0.257,0.2591,0.258,0.2596,0.259,0.2593,0.2603,0.2596,0.2589,0.2676,0.2676,0.2677,0,0,0.1992,0.2034,0.2045,0.2084,0.2143,0.219,0.2192,0.2264,0.2293,0.2322,0.2379,0.2404,0.2464,0.2502,0.253,0.2494,0.2536,0.2504,0.2462,0.2469,0.2463,0.2458,0.2445,0.2439,0.2503,0.2502,0.2502,0,0.1941,0.1983,0.2046,0.2068,0.2095,0.2164,0.2176,0.221,0.2279,0.2296,0.2318,0.2394,0.2437,0.2466,0.2457,0.2477,0.2482,0.2496,0.2459,0.2454,0.2451,0.2439,0.2434,0.2498,0.2499,0.2499,0.2499,0,0.1918,0.1946,0.1948,0.2012,0.2039,0.2056,0.2122,0.2142,0.2181,0.2225,0.2254,0.2309,0.2358,0.2368,0.2407,0.2402,0.2412,0.2445,0.2483,0.2438,0.2428,0.2424,0.2492,0.2494,0.2495,0.2496,0,0,0.1819,0.1916,0.1916,0.1946,0.2016,0.2039,0.2059,0.2106,0.2122,0.2167,0.2186,0.2234,0.2265,0.2296,0.2339,0.2346,0.2313,0.2378,0.2381,0.2364,0.2311,0.2285,0.2279,0.2341,0.2341,0.234,0.2306,0,0.178,0.1819,0.1876,0.1896,0.1923,0.1988,0.2005,0.205,0.2092,0.2121,0.2167,0.2199,0.2238,0.2257,0.2266,0.2315,0.2303,0.2319,0.2359,0.236,0.2342,0.2274,0.2247,0.2212,0.2302,0.2302,0.2301,0,0.1741,0.1781,0.1803,0.1871,0.1885,0.1899,0.1947,0.1973,0.2026,0.2056,0.2089,0.2137,0.2161,0.2195,0.223,0.2238,0.2259,0.2285,0.2285,0.2291,0.2328,0.2278,0.2202,0.2196,0.2296,0.2296,0.2297,0,0.1665,0.1725,0.1747,0.177,0.185,0.1858,0.1892,0.1946,0.197,0.2012,0.2029,0.2072,0.2096,0.213,0.2187,0.2207,0.2215,0.2255,0.2241,0.2239,0.224,0.2239,0.2166,0.2253,0.2253,0.2253,0.2253,0,0.1616,0.1627,0.1714,0.1726,0.1741,0.1806,0.1819,0.1859,0.1906,0.1928,0.1987,0.2006,0.2082,0.211,0.2155,0.2177,0.2187,0.2212,0.2224,0.2207,0.2203,0.2221,0.2224,0.2252,0.2252,0.2252,0.2252,0,0.1534,0.1592,0.162,0.1693,0.1711,0.1719,0.1782,0.1797,0.1841,0.1868,0.1878,0.1948,0.1984,0.2045,0.2099,0.213,0.2143,0.2163,0.2124,0.2132,0.2114,0.2115,0.205,0.2044,0.2134,0.2133,0.2132,0,0.1499,0.1509,0.1583,0.1601,0.1633,0.1662,0.1687,0.1752,0.1776,0.1836,0.1843,0.1884,0.192,0.1975,0.2031,0.2072,0.2094,0.2068,0.21,0.2082,0.2093,0.2091,0.2092,0.206,0.2059,0.2058,0.2057,0,0.143,0.1458,0.1492,0.1535,0.1563,0.16,0.1641,0.1653,0.1727,0.175,0.1788,0.1815,0.187,0.191,0.1959,0.1994,0.2038,0.2046,0.2045,0.2028,0.2005,0.2016,0.2104,0.2048,0.2049,0.2049,0.205,0.205,0.137,0.1382,0.1435,0.1471,0.1508,0.1544,0.1562,0.1608,0.164,0.1689,0.1726,0.176,0.1812,0.1883,0.1915,0.1943,0.1963,0.1962,0.1961,0.196,0.1953,0.2,0.1953,0.1953,0.1953,0.1954,0.1954,0,0.1304,0.1342,0.1373,0.1428,0.1455,0.1493,0.154,0.1561,0.159,0.1635,0.1669,0.1711,0.1749,0.1808,0.1851,0.1862,0.1883,0.1871,0.1871,0.1878,0.1933,0.1929,0.1853,0.1853,0.1853,0.1853,0.1853,0.1853,0.1273,0.1294,0.1329,0.1369,0.1407,0.1441,0.1464,0.1498,0.1534,0.1578,0.161,0.1648,0.1698,0.1745,0.1782,0.1798,0.1811,0.1792,0.1814,0.1865,0.1874,0.1883,0.188,0.1795,0.1794,0.1757,0.1757,0.1757]},{"header":{"parameterUnit":"m.s-1","parameterCategory":1,"la1":30.2991,"la2":30.254,"lo1":-89.0895,"lo2":-89.0444,"dy":0.0017,"dx":0.0017,"nx":28,"ny":28,"refTime":"2023-08-16T03:00:00:Z","depth":0,"parameterNumber":3,"parameterNumberName":"V-component_of_WINDS"},"data":[0,0,0,0,0,0,0,0,0,0,0,0,0,0,0,0,0,0,0,0,0,0,0,0,0,0,0,0,0,0,0,0,0,0,0,0,0,0,0,0,0,0,0,0,0,0,0,0,0,0,0,0,0,0,0,0,0,0,1.9588,1.9588,0,1.9555,1.9555,1.9554,1.9542,1.9543,1.9543,1.9543,1.9508,1.9507,1.9506,0,0,0,0,0,0,0,0,0,0,0,0,0,1.9639,1.9638,1.9588,1.9588,1.9588,1.9555,1.9555,1.9554,1.9542,1.9543,1.9543,1.9543,1.9509,1.9507,1.9506,0,0,0,0,0,0,0,0,0,0,0,0,0,1.9613,1.9638,1.9589,1.9578,1.9576,1.9555,1.9555,1.9554,1.9542,1.9543,1.9543,1.9543,1.9509,1.9507,1.9506,1.9493,0,0,1.9501,1.9501,0,0,0,0,0,0,0,0,1.9614,1.9611,1.958,1.9578,1.9577,1.9553,1.956,1.9534,1.9542,1.9555,1.9543,1.9543,1.9523,1.952,1.9514,1.9491,1.949,1.9501,1.95,1.95,1.9499,0,0,0,0,0,0,0,1.9616,1.9612,1.9575,1.9579,1.9578,1.9574,1.957,1.9555,1.9539,1.9554,1.9553,1.955,1.9522,1.9515,1.9513,1.9489,1.9501,1.95,1.9499,1.9498,1.9452,1.9451,0,0,0,0,0,0,1.962,1.9614,1.9576,1.9574,1.9596,1.9573,1.9569,1.9561,1.9539,1.9536,1.9549,1.9549,1.9518,1.9515,1.9512,1.9493,1.95,1.9498,1.9497,1.9452,1.9451,1.9451,0,0,0,0,0,0,1.9621,1.9617,1.9578,1.9594,1.9588,1.9572,1.9563,1.956,1.9553,1.9535,1.9532,1.9545,1.9518,1.9514,1.9497,1.9492,1.9497,1.9496,1.9452,1.9452,1.9451,1.9457,0,0,0,0,0,0,1.9623,1.9617,1.9613,1.9594,1.9588,1.9565,1.9562,1.9559,1.955,1.955,1.953,1.9527,1.9518,1.9499,1.9496,1.949,1.9495,1.9453,1.9452,1.9451,1.9457,1.9456,1.9456,0,0,0,0,0,1.9624,1.9616,1.9613,1.9608,1.9582,1.9564,1.9561,1.955,1.955,1.9545,1.9533,1.9528,1.9493,1.9498,1.9493,1.9487,1.9453,1.9452,1.9451,1.9457,1.9457,1.9456,0,0,0,0,0,0,1.9636,1.9614,1.9609,1.9595,1.9581,1.9562,1.9556,1.955,1.9536,1.9536,1.9523,1.9518,1.9502,1.9493,1.9499,1.9472,1.9472,1.9471,1.9478,1.9478,1.9477,1.9479,1.9494,0,0,0,0,0,1.9636,1.9624,1.9606,1.9594,1.9588,1.9573,1.9565,1.9557,1.9543,1.9537,1.9524,1.951,1.9495,1.9486,1.9472,1.9456,1.945,1.9449,1.9448,1.9448,1.9446,1.9434,1.9433,1.9449,1.9449,1.9449,0,0,1.9638,1.9624,1.9618,1.9596,1.9585,1.9572,1.9568,1.9555,1.9545,1.9535,1.9518,1.9508,1.9491,1.9473,1.9465,1.9465,1.9441,1.9447,1.9447,1.9446,1.9433,1.9432,1.9431,1.9448,1.9448,1.9448,0,0,1.9633,1.9623,1.9611,1.9599,1.9582,1.9572,1.9569,1.955,1.9543,1.9525,1.9517,1.9504,1.948,1.9467,1.9458,1.9446,1.944,1.9442,1.9439,1.9428,1.9426,1.9425,1.9419,1.9417,1.944,1.944,1.944,0,1.9637,1.9618,1.9606,1.9592,1.9582,1.9572,1.9559,1.9549,1.9528,1.952,1.9521,1.9488,1.9476,1.9455,1.9451,1.9445,1.944,1.9444,1.9428,1.9426,1.9425,1.9419,1.9416,1.944,1.944,1.944,1.944,0,1.9622,1.9609,1.9601,1.958,1.9569,1.9556,1.9541,1.9532,1.9524,1.9514,1.9495,1.948,1.9461,1.9455,1.9449,1.9432,1.9432,1.943,1.9431,1.9424,1.9417,1.9415,1.9441,1.9441,1.9441,1.9441,0,0,1.9625,1.9596,1.9594,1.9583,1.9562,1.955,1.9536,1.9517,1.9508,1.9494,1.948,1.9458,1.9455,1.9445,1.9436,1.9426,1.9415,1.9425,1.9424,1.9422,1.9392,1.9393,1.9391,1.9411,1.941,1.941,1.9393,0,1.9617,1.9591,1.9579,1.9558,1.9544,1.9533,1.952,1.9505,1.9494,1.9479,1.9467,1.9451,1.945,1.9442,1.9432,1.9418,1.9408,1.942,1.9396,1.9396,1.94,1.9388,1.9389,1.9374,1.9391,1.9391,1.939,0,1.9605,1.9589,1.9566,1.9544,1.9538,1.9526,1.9507,1.9494,1.9475,1.9468,1.9454,1.9446,1.9428,1.943,1.9405,1.9413,1.9402,1.9394,1.9393,1.939,1.9392,1.9383,1.9369,1.9367,1.9387,1.9387,1.9387,0,1.9607,1.958,1.9562,1.9553,1.9528,1.952,1.9509,1.9491,1.9479,1.9462,1.9454,1.9435,1.9425,1.941,1.9395,1.9398,1.937,1.9372,1.9362,1.9362,1.9356,1.9357,1.934,1.9352,1.9352,1.9352,1.9352,0,1.9598,1.9585,1.9562,1.9551,1.9535,1.952,1.9504,1.9492,1.9475,1.946,1.945,1.9436,1.9419,1.9402,1.9391,1.937,1.9366,1.9358,1.9355,1.9359,1.9359,1.9351,1.9351,1.9352,1.9352,1.9352,1.9352,0,1.9598,1.9583,1.9563,1.9539,1.9533,1.9522,1.9501,1.9489,1.9477,1.9458,1.9453,1.9433,1.9413,1.9397,1.9372,1.9364,1.9341,1.9339,1.9347,1.9345,1.9336,1.9336,1.9312,1.9307,1.9324,1.9324,1.9324,0,1.9594,1.9582,1.9557,1.9546,1.9535,1.9518,1.9506,1.9491,1.9478,1.9455,1.9445,1.9424,1.9407,1.9374,1.9357,1.9337,1.9332,1.9325,1.9329,1.9332,1.933,1.933,1.9328,1.9325,1.9324,1.9324,1.9324,0,1.9586,1.9578,1.9562,1.9541,1.9527,1.951,1.9493,1.9485,1.9465,1.9452,1.9431,1.9417,1.9389,1.9368,1.9345,1.9332,1.9324,1.9323,1.9319,1.9322,1.9327,1.9322,1.9344,1.9324,1.9324,1.9324,1.9324,1.9324,1.9582,1.9571,1.955,1.9531,1.9516,1.95,1.9487,1.9472,1.9454,1.943,1.9422,1.94,1.9379,1.9347,1.9334,1.9315,1.9315,1.931,1.9308,1.9307,1.9306,1.933,1.9311,1.9311,1.9311,1.9311,1.9311,0,1.9573,1.9559,1.9541,1.9517,1.9501,1.9495,1.9475,1.9461,1.9442,1.9423,1.9405,1.938,1.9358,1.9338,1.9315,1.9304,1.9299,1.9298,1.9298,1.9295,1.9309,1.9314,1.9302,1.9302,1.9302,1.9302,1.9302,1.9302,1.9566,1.9545,1.9535,1.9506,1.9491,1.9469,1.9458,1.9442,1.9426,1.9398,1.938,1.9367,1.9347,1.9322,1.9301,1.9295,1.9287,1.9286,1.9279,1.9293,1.9294,1.9295,1.9299,1.9284,1.9284,1.9266,1.9266,1.9266]}]]